Flag for Pakistan Weather past 2 weeks in Rawalpindi, Pakistan

Now
61 °F

Scattered clouds.


Feels Like: 61 °F
Forecast: 33 / 65 °F
Wind: No wind

Location: Islamabad Airport

Current Time: Dec 28, 2014 at 1:05:44 PM

Latest Report: Dec 28, 2014 at 12:00 PM


Visibility: 2 mi

Pressure: 30.18 "Hg

Humidity: 36%

Dew point: 34 °F

Location of RawalpindiLocation

Historic Weather in Rawalpindi — Graph

°F

Rawalpindi temperature yesterday

Maximum temperature yesterday: 66 °F (at 2:00 PM)
Minimum temperature yesterday: 36 °F (at 7:00 AM)
Average temperature yesterday: 50 °F

Past Weeks' High & Low Weather Summary

 TemperatureHumidityPressure
High68 °F (Dec 13, 2:00 PM)100% (Dec 19, 4:00 AM)30.27 "Hg (Dec 19, 4:00 AM)
Low36 °F (Dec 27, 7:00 AM)21% (Dec 26, 3:00 PM)29.95 "Hg (Dec 27, 1:00 AM)
Average50 °F71%30.12 "Hg
* Reported Dec 13 12:00 Noon — Dec 28 12:00 Noon, Rawalpindi, Weather by CustomWeather, © 2014

Note: Actual official high and low records may vary slightly from our data, if they occured in-between our weather recording intervals... More about our weather records

Advertising

Rawalpindi weather history for previous 24 hours

 ConditionsComfort  
Time TempWeatherWind HumidityBarometerVisibility
12:00 PM
Dec 28
61 °FScattered clouds.No wind36%30.18 "Hg2 mi
11:00 AM54 °FHaze.No wind47%30.18 "Hg2 mi
10:00 AM48 °FHaze.No wind62%30.21 "Hg1 mi
9:00 AM45 °FScattered clouds.No wind71%30.18 "Hg1 mi
8:00 AM37 °FFog.No wind87%30.15 "Hg1 mi
7:00 AM37 °FFog.No wind87%30.15 "Hg1 mi
6:00 AM39 °FFog.No wind87%30.15 "Hg2 mi
5:00 AM39 °FFog.No wind87%30.12 "Hg2 mi
4:00 AM41 °FClear.No wind76%30.12 "Hg2 mi
3:00 AM41 °FClear.No wind76%30.12 "Hg2 mi
2:00 AM41 °FClear.No wind81%30.12 "Hg2 mi
1:00 AM43 °FClear.No wind81%30.12 "Hg2 mi
12:00 AM45 °FClear.No wind76%30.12 "Hg2 mi
11:00 PM
Dec 27
45 °FClear.5 mph76%30.12 "Hg2 mi
10:00 PM48 °FClear.No wind76%30.15 "Hg2 mi
9:00 PM50 °FClear.5 mph76%30.12 "Hg2 mi
7:00 PM57 °FClear.5 mph67%30.09 "Hg2 mi
6:00 PM59 °FClear.9 mph63%30.09 "Hg2 mi
5:00 PM63 °FSunny.5 mph49%30.07 "Hg2 mi
4:00 PM64 °FSunny.7 mph40%30.04 "Hg2 mi
3:00 PM66 °FSunny.9 mph35%30.04 "Hg2 mi
2:00 PM66 °FSunny.7 mph35%30.04 "Hg2 mi
1:00 PM63 °FSunny.5 mph37%30.04 "Hg2 mi
Weather by CustomWeather, © 2014

See weather overviewHow to use our weather pages